TimeEST,TemperatureF,Dew PointF,Humidity,Sea Level PressureIn,VisibilityMPH,Wind Direction,Wind SpeedMPH,Gust SpeedMPH,PrecipitationIn,Events,Conditions,WindDirDegrees,DateUTC
12:54 AM,45.0,37.0,74,30.33,10.0,NNE,9.2,-,N/A,,Clear,20,2012-11-17 05:54:00
1:54 AM,44.1,37.0,76,30.34,10.0,North,9.2,-,N/A,,Clear,10,2012-11-17 06:54:00
2:54 AM,44.1,37.0,76,30.33,10.0,North,12.7,-,N/A,,Clear,10,2012-11-17 07:54:00
3:54 AM,43.0,37.0,80,30.34,10.0,North,9.2,-,N/A,,Clear,10,2012-11-17 08:54:00
4:54 AM,43.0,37.0,80,30.34,10.0,North,11.5,-,N/A,,Mostly Cloudy,10,2012-11-17 09:54:00
5:54 AM,46.0,37.9,73,30.34,10.0,NNE,12.7,-,N/A,,Overcast,20,2012-11-17 10:54:00
6:54 AM,45.0,37.9,76,30.35,10.0,NNE,11.5,-,N/A,,Scattered Clouds,30,2012-11-17 11:54:00
7:12 AM,44.6,37.4,76,30.37,10.0,NNE,9.2,-,N/A,,Scattered Clouds,20,2012-11-17 12:12:00
7:54 AM,46.0,39.0,76,30.37,10.0,NNE,9.2,-,N/A,,Scattered Clouds,20,2012-11-17 12:54:00
8:54 AM,51.1,42.1,71,30.38,10.0,NNE,16.1,-,N/A,,Clear,30,2012-11-17 13:54:00
9:54 AM,55.0,44.1,67,30.38,10.0,NNE,15.0,-,N/A,,Scattered Clouds,30,2012-11-17 14:54:00
10:54 AM,57.0,46.0,67,30.38,10.0,NNE,20.7,26.5,N/A,,Clear,30,2012-11-17 15:54:00
11:54 AM,57.0,46.0,67,30.37,10.0,NNE,19.6,-,N/A,,Mostly Cloudy,30,2012-11-17 16:54:00
12:54 PM,57.9,46.9,67,30.36,10.0,NNE,16.1,-,N/A,,Mostly Cloudy,20,2012-11-17 17:54:00
1:01 PM,57.2,46.4,67,30.37,10.0,NNE,17.3,-,N/A,,Overcast,20,2012-11-17 18:01:00
1:54 PM,57.9,46.9,67,30.35,10.0,NNE,13.8,20.7,N/A,,Overcast,20,2012-11-17 18:54:00
2:02 PM,57.2,46.4,67,30.36,10.0,NNE,16.1,-,N/A,,Overcast,30,2012-11-17 19:02:00
2:15 PM,57.2,46.4,67,30.36,10.0,NNE,18.4,25.3,N/A,,Overcast,30,2012-11-17 19:15:00
2:54 PM,57.9,46.0,65,30.36,10.0,NE,19.6,26.5,N/A,,Overcast,40,2012-11-17 19:54:00
3:54 PM,57.0,46.0,67,30.37,10.0,NE,16.1,-,N/A,,Overcast,40,2012-11-17 20:54:00
4:54 PM,55.0,46.0,72,30.38,10.0,NNE,15.0,24.2,N/A,,Overcast,30,2012-11-17 21:54:00
5:54 PM,54.0,46.0,75,30.39,10.0,NNE,15.0,-,N/A,,Overcast,30,2012-11-17 22:54:00
6:54 PM,53.1,46.0,77,30.37,10.0,NNE,18.4,25.3,N/A,,Overcast,20,2012-11-17 23:54:00
7:54 PM,53.1,46.9,80,30.37,10.0,NNE,16.1,-,N/A,,Overcast,30,2012-11-18 00:54:00
8:54 PM,52.0,46.9,83,30.37,10.0,NNE,19.6,26.5,N/A,,Overcast,20,2012-11-18 01:54:00
9:29 PM,51.8,46.4,82,30.37,10.0,NNE,15.0,-,N/A,,Overcast,20,2012-11-18 02:29:00
9:38 PM,53.6,46.4,77,30.36,10.0,NNE,19.6,-,N/A,,Mostly Cloudy,20,2012-11-18 02:38:00
9:54 PM,53.1,46.9,80,30.35,10.0,NNE,18.4,-,N/A,,Mostly Cloudy,20,2012-11-18 02:54:00
10:08 PM,53.6,46.4,77,30.35,10.0,NNE,20.7,-,N/A,,Overcast,20,2012-11-18 03:08:00
10:54 PM,53.1,46.9,80,30.35,10.0,NNE,19.6,26.5,N/A,,Overcast,20,2012-11-18 03:54:00
11:54 PM,53.1,48.0,83,30.34,10.0,NNE,16.1,-,N/A,,Overcast,20,2012-11-18 04:54:00